Location: Unspecified
(33.2407°S, 0.0000°E)
Time: 13:07:22
(UTC+00:00)

KKS-1 - Visible Passes

Search period start: 20 August 2019 00:00
Search period end: 30 August 2019 00:00
Orbit: 637 x 650 km, 98.3° (Epoch: 20 August)

Date Brightness Start Highest point End Pass type
(mag) Time Alt. Az. Time Alt. Az. Time Alt. Az.
20 Aug ? 18:44:55 10° N 18:49:22 64° WNW 18:53:54 10° SSW visible
21 Aug ? 19:09:56 10° NNW 19:13:58 32° W 19:18:03 10° SW visible
22 Aug ? 17:58:00 10° NE 18:02:04 35° ESE 18:06:12 10° S visible
22 Aug ? 19:35:41 10° NW 19:38:39 17° W 19:41:39 10° SW visible
23 Aug ? 18:22:04 10° NNE 18:26:31 67° ESE 18:31:02 10° S visible
24 Aug ? 18:46:35 10° N 18:51:03 62° W 18:55:32 10° SSW visible
25 Aug ? 19:11:38 10° NNW 19:15:38 32° W 19:19:42 10° SW visible
26 Aug ? 17:59:38 10° NE 18:03:45 35° ESE 18:07:52 10° S visible
26 Aug ? 19:37:25 10° NW 19:40:19 17° W 19:43:15 10° SW visible
27 Aug ? 18:23:43 10° NNE 18:28:11 69° ESE 18:32:41 10° S visible
28 Aug ? 18:48:16 10° N 18:52:42 60° W 18:57:12 10° SSW visible
29 Aug ? 19:13:20 10° NNW 19:17:18 31° W 19:21:19 10° SW visible
